Visibility
15.0 15.0 15.0 15.0 15.0 15.0 15.0 15.0 15.0 15.0 15.0 15.0 15.0 15.0 15.0 15.0 15.0 0.6 10.2 15.0 11.2 10.0 15.0 15.0 15.0 15.0 15.0 15.0 15.0 15.0 12.1 15.0 15.0 15.0 15.0 15.0 15.0 15.0 15.0 15.0 15.0 12.7 12.3 8.1 15.0 15.0 15.0 15.0 15.0 15.0 15.0 15.0 15.0 15.0
15.0 15.0 15.0 15.0 15.0 15.0 15.0 15.0 15.0 15.0 15.0 15.0 15.0 15.0 15.0 15.0 15.0 11.3 0.1 15.0 15.0 0.2 4.5 15.0 15.0 15.0 15.0 15.0 15.0 15.0 15.0 15.0 15.0 15.0 15.0 15.0 15.0 15.0 15.0 15.0 15.0 15.0 15.0 15.0 15.0 15.0 15.0 15.0 15.0 15.0 15.0 15.0 15.0 15.0
15.0 15.0 15.0 15.0 15.0 15.0 15.0 15.0 15.0 15.0 15.0 15.0 15.0 15.0 15.0 15.0 15.0 9.9 9.3 3.9 0.4 0.1 8.7 8.4 15.0 15.0 15.0 15.0 15.0 15.0 15.0 15.0 15.0 15.0 15.0 15.0 8.5 15.0 15.0 15.0 15.0 15.0 15.0 15.0 15.0 15.0 15.0 15.0 15.0 15.0 15.0 15.0 15.0 15.0
15.0 15.0 15.0 15.0 15.0 15.0 15.0 15.0 15.0 15.0 15.0 15.0 15.0 15.0 15.0 15.0 15.0 15.0 11.8 10.2 7.8 3.5 0.1 7.4 15.0 15.0 15.0 15.0 15.0 15.0 15.0 15.0 15.0 15.0 15.0 13.1 15.0 15.0 15.0 15.0 15.0 15.0 15.0 15.0 15.0 15.0 15.0 15.0 15.0 15.0 15.0 15.0 15.0 15.0
15.0 15.0 15.0 15.0 15.0 15.0 15.0 15.0 15.0 15.0 15.0 15.0 15.0 15.0 15.0 15.0 15.0 15.0 15.0 14.9 15.0 0.7 0.1 8.6 15.0 15.0 15.0 15.0 15.0 15.0 15.0 15.0 15.0 4.1 0.0 0.1 15.0 15.0 15.0 11.9 7.3 15.0 15.0 15.0 15.0 15.0 15.0 15.0 15.0 15.0 15.0 15.0 15.0 15.0
15.0 15.0 15.0 15.0 15.0 15.0 15.0 15.0 15.0 15.0 15.0 15.0 11.4 14.9 15.0 15.0 15.0 14.6 1.5 7.0 15.0 15.0 0.0 0.0 15.0 15.0 15.0 15.0 15.0 15.0 15.0 15.0 15.0 0.0 0.0 0.2 15.0 15.0 0.3 0.1 15.0 15.0 15.0 15.0 15.0 15.0 15.0 15.0 15.0 15.0 15.0 15.0 15.0 15.0
15.0 15.0 15.0 15.0 15.0 15.0 15.0 15.0 15.0 15.0 15.0 14.8 15.0 14.8 15.0 15.0 15.0 15.0 15.0 2.3 15.0 5.7 0.1 0.0 0.2 11.6 15.0 15.0 15.0 15.0 15.0 15.0 15.0 0.1 0.0 0.0 15.0 14.4 0.2 0.1 15.0 15.0 15.0 15.0 15.0 15.0 15.0 15.0 15.0 15.0 15.0 15.0 15.0 15.0
15.0 15.0 15.0 15.0 15.0 14.9 15.0 15.0 15.0 15.0 15.0 15.0 14.4 13.3 13.7 15.0 13.9 15.0 15.0 15.0 15.0 6.4 0.4 0.0 0.2 0.1 15.0 5.1 3.2 15.0 7.7 3.2 0.0 0.0 0.0 0.0 0.1 6.5 0.1 10.5 15.0 15.0 15.0 15.0 15.0 15.0 15.0 15.0 15.0 15.0 15.0 15.0 15.0 15.0
15.0 15.0 15.0 15.0 15.0 15.0 15.0 12.8 14.9 15.0 15.0 15.0 15.0 14.9 15.0 15.0 0.1 15.0 15.0 15.0 11.9 5.0 1.8 0.4 0.2 0.1 6.6 10.7 0.9 0.0 0.0 0.1 0.0 0.0 0.0 0.0 0.1 0.1 13.6 15.0 15.0 15.0 15.0 15.0 15.0 15.0 15.0 15.0 15.0 15.0 15.0 15.0 15.0 15.0
15.0 15.0 15.0 15.0 15.0 15.0 15.0 15.0 14.8 11.4 14.8 14.9 15.0 15.0 0.7 12.1 12.8 5.0 12.8 8.8 0.0 0.1 0.0 0.1 0.1 0.0 0.2 4.6 8.2 0.1 0.1 0.1 0.1 2.4 0.4 0.0 2.4 15.0 15.0 15.0 15.0 15.0 15.0 15.0 15.0 15.0 15.0 15.0 15.0 15.0 15.0 15.0 15.0 15.0
15.0 15.0 15.0 15.0 15.0 15.0 15.0 15.0 9.8 6.8 6.4 15.0 15.0 15.0 15.0 15.0 12.6 11.0 10.6 0.0 0.1 0.0 0.2 8.5 5.5 5.0 4.8 10.2 6.0 0.2 0.1 0.1 0.1 11.4 3.0 0.4 4.2 15.0 15.0 15.0 15.0 15.0 15.0 15.0 15.0 15.0 15.0 15.0 15.0 15.0 15.0 15.0 15.0 15.0
15.0 15.0 15.0 15.0 15.0 15.0 15.0 15.0 7.8 7.1 15.0 13.9 10.0 15.0 14.1 13.2 0.1 0.6 0.8 5.9 0.1 6.4 15.0 15.0 11.5 15.0 12.8 14.4 0.5 0.0 3.7 0.2 0.2 6.5 0.1 0.7 15.0 15.0 15.0 15.0 15.0 15.0 15.0 15.0 15.0 15.0 15.0 15.0 15.0 15.0 15.0 15.0 15.0 15.0
14.8 15.0 15.0 15.0 15.0 14.5 14.7 15.0 15.0 6.1 7.0 7.4 1.2 0.0 0.0 0.1 0.1 0.1 0.2 0.2 0.8 15.0 15.0 9.9 11.8 4.3 0.1 0.0 0.0 0.0 0.1 0.3 3.5 0.1 5.6 15.0 15.0 15.0 15.0 15.0 15.0 15.0 15.0 15.0 15.0 15.0 15.0 15.0 15.0 15.0 15.0 15.0 15.0 15.0
14.4 14.5 15.0 15.0 15.0 15.0 9.6 15.0 15.0 3.5 4.4 0.0 0.1 0.0 0.1 3.8 0.4 15.0 15.0 15.0 15.0 12.3 3.3 1.3 6.8 1.8 1.2 0.0 0.3 0.2 11.8 0.2 0.6 0.3 0.3 15.0 15.0 15.0 15.0 15.0 15.0 15.0 15.0 15.0 15.0 15.0 15.0 15.0 15.0 15.0 15.0 15.0 15.0 15.0
11.4 10.6 11.2 11.8 15.0 15.0 15.0 7.9 9.2 5.4 0.0 0.1 0.0 0.3 2.2 15.0 15.0 8.4 4.1 0.9 15.0 14.8 15.0 9.8 0.8 0.6 1.8 0.0 5.0 9.1 0.2 4.4 14.3 15.0 15.0 15.0 15.0 15.0 15.0 15.0 10.8 15.0 15.0 15.0 15.0 15.0 15.0 15.0 15.0 15.0 15.0 15.0 15.0 15.0
14.6 10.2 9.8 11.2 14.0 14.9 15.0 6.3 6.3 4.0 0.0 0.0 0.0 0.8 8.5 13.6 15.0 15.0 5.4 11.7 15.0 15.0 5.7 6.7 3.4 0.3 9.7 7.7 0.1 0.1 0.3 0.2 8.5 4.5 15.0 15.0 8.1 15.0 15.0 15.0 15.0 15.0 15.0 15.0 15.0 15.0 15.0 15.0 14.8 5.7 15.0 15.0 15.0 15.0
11.0 10.5 15.0 15.0 15.0 11.6 14.2 4.9 6.7 0.0 0.1 0.0 0.8 8.8 15.0 15.0 15.0 15.0 15.0 15.0 15.0 0.6 13.9 3.2 0.2 6.4 15.0 15.0 15.0 14.6 1.0 0.2 2.5 5.9 3.2 15.0 15.0 15.0 15.0 15.0 15.0 15.0 15.0 15.0 15.0 15.0 15.0 15.0 15.0 15.0 15.0 15.0 15.0 15.0
8.5 15.0 15.0 8.6 11.0 7.0 7.4 0.2 0.0 0.1 0.1 0.2 2.6 3.3 15.0 15.0 15.0 15.0 15.0 15.0 15.0 15.0 14.7 11.1 2.8 0.1 0.1 0.2 15.0 15.0 15.0 15.0 15.0 15.0 15.0 15.0 15.0 15.0 15.0 15.0 15.0 15.0 15.0 15.0 15.0 15.0 15.0 15.0 15.0 15.0 15.0 15.0 15.0 15.0
15.0 15.0 15.0 8.1 9.0 3.0 0.0 0.0 0.0 0.1 0.1 7.3 12.1 15.0 15.0 15.0 15.0 15.0 15.0 15.0 15.0 15.0 9.5 4.9 3.2 0.1 15.0 15.0 15.0 15.0 15.0 15.0 15.0 15.0 15.0 15.0 15.0 15.0 15.0 15.0 15.0 15.0 15.0 15.0 15.0 15.0 15.0 15.0 15.0 15.0 15.0 15.0 15.0 15.0
8.9 9.4 12.8 11.1 6.4 0.0 0.0 0.1 0.0 0.1 0.2 2.9 12.0 15.0 15.0 15.0 15.0 15.0 15.0 15.0 15.0 15.0 1.4 0.9 11.4 15.0 15.0 15.0 15.0 15.0 15.0 15.0 15.0 15.0 15.0 15.0 15.0 15.0 15.0 15.0 15.0 15.0 15.0 15.0 15.0 15.0 15.0 15.0 15.0 15.0 15.0 15.0 15.0 15.0
8.4 15.0 9.4 5.1 0.2 0.0 0.1 0.1 0.1 0.2 15.0 15.0 15.0 15.0 15.0 5.7 15.0 15.0 15.0 15.0 1.3 0.2 7.9 15.0 15.0 15.0 15.0 15.0 15.0 15.0 15.0 15.0 15.0 15.0 15.0 15.0 15.0 15.0 15.0 15.0 15.0 15.0 15.0 15.0 15.0 15.0 15.0 15.0 15.0 15.0 15.0 14.9 15.0 15.0
15.0 14.3 1.4 1.4 0.0 0.0 0.0 0.1 7.4 2.7 0.5 2.1 9.2 10.7 6.7 15.0 12.8 11.0 15.0 14.6 13.2 15.0 15.0 15.0 15.0 15.0 15.0 15.0 15.0 15.0 15.0 15.0 15.0 15.0 15.0 15.0 15.0 15.0 15.0 15.0 15.0 15.0 15.0 15.0 15.0 15.0 15.0 15.0 15.0 15.0 7.3 9.6 15.0 15.0
6.6 2.2 0.0 0.0 0.0 0.1 0.1 0.2 0.1 0.1 0.1 0.4 0.2 1.5 2.3 4.1 14.4 15.0 10.2 15.0 15.0 15.0 15.0 15.0 15.0 15.0 15.0 15.0 15.0 15.0 15.0 15.0 15.0 15.0 15.0 15.0 15.0 15.0 15.0 15.0 15.0 15.0 15.0 15.0 15.0 15.0 15.0 15.0 15.0 10.6 10.7 3.3 15.0 9.1
0.1 0.0 0.0 0.1 0.1 0.1 0.1 0.1 0.1 0.1 0.3 2.2 4.5 12.1 14.9 14.1 15.0 15.0 15.0 15.0 15.0 15.0 15.0 15.0 15.0 15.0 8.5 14.8 12.4 11.5 13.0 10.7 4.0 6.4 15.0 15.0 15.0 15.0 15.0 15.0 15.0 15.0 15.0 15.0 15.0 15.0 15.0 15.0 15.0 15.0 15.0 11.5 0.1 0.1
0.0 0.0 0.1 0.1 0.1 0.1 0.1 0.1 0.1 0.6 0.3 3.3 4.3 12.5 15.0 13.0 15.0 4.5 15.0 15.0 15.0 15.0 15.0 10.7 4.6 14.9 3.3 0.2 0.8 9.7 15.0 2.9 0.0 0.1 5.1 14.9 14.8 15.0 15.0 15.0 15.0 15.0 15.0 15.0 15.0 15.0 15.0 15.0 15.0 15.0 14.8 5.2 0.1 0.1
0.1 0.1 0.3 15.0 2.9 7.7 5.6 1.4 1.4 6.6 3.6 4.4 5.6 15.0 5.5 15.0 15.0 15.0 15.0 15.0 15.0 15.0 15.0 15.0 15.0 15.0 15.0 15.0 8.7 15.0 15.0 15.0 8.9 0.0 0.0 0.5 1.4 3.4 0.1 0.7 15.0 15.0 15.0 15.0 15.0 15.0 15.0 15.0 15.0 15.0 12.9 0.1 0.2 0.1
0.1 0.1 0.1 7.4 12.5 13.4 9.7 9.2 15.0 10.4 4.3 10.7 13.3 15.0 15.0 15.0 15.0 15.0 15.0 15.0 15.0 15.0 15.0 15.0 15.0 15.0 15.0 15.0 15.0 15.0 15.0 15.0 6.2 0.0 0.0 0.1 8.0 13.6 0.4 0.0 0.1 15.0 15.0 15.0 15.0 15.0 15.0 15.0 13.1 0.1 0.1 0.0 0.0 0.4
1.0 9.6 8.2 5.6 5.6 7.7 15.0 7.9 15.0 15.0 15.0 15.0 12.1 15.0 15.0 15.0 15.0 15.0 15.0 15.0 15.0 15.0 15.0 15.0 15.0 15.0 15.0 15.0 15.0 15.0 15.0 9.5 0.3 0.3 0.1 0.1 13.2 15.0 15.0 15.0 12.3 9.8 10.2 9.3 11.0 11.5 12.2 2.5 0.0 0.0 0.0 0.2 0.1 0.1
1.1 14.1 15.0 0.4 0.1 0.1 0.5 15.0 15.0 15.0 15.0 15.0 15.0 15.0 15.0 15.0 15.0 15.0 15.0 15.0 15.0 15.0 15.0 15.0 15.0 15.0 14.0 13.4 14.4 15.0 9.3 0.1 0.1 0.3 0.5 0.2 1.4 1.7 14.8 0.9 0.1 0.1 0.1 0.4 6.4 13.3 5.1 0.5 0.3 0.2 0.0 0.1 0.1 0.1
2.0 15.0 15.0 1.4 10.3 15.0 15.0 15.0 15.0 15.0 15.0 15.0 13.9 15.0 15.0 15.0 15.0 15.0 15.0 15.0 15.0 15.0 15.0 15.0 15.0 0.5 0.1 0.1 0.4 1.8 0.8 0.1 0.1 0.1 0.3 0.2 0.1 3.6 15.0 14.3 2.8 0.2 0.2 0.2 0.0 0.0 0.0 0.0 0.0 0.0 0.1 0.1 0.1 0.1
13.2 8.2 11.7 8.5 15.0 15.0 15.0 15.0 8.1 6.5 4.3 10.2 6.8 8.1 15.0 15.0 15.0 15.0 11.1 4.1 10.2 15.0 2.2 0.1 0.1 0.1 0.1 0.9 8.2 1.9 1.9 2.1 5.0 1.8 2.7 10.3 12.3 12.3 12.5 14.7 15.0 5.7 0.5 0.0 0.0 0.0 0.0 0.1 0.1 0.1 0.1 0.1 0.1 0.8
4.0 15.0 15.0 14.3 15.0 15.0 14.6 15.0 15.0 9.2 15.0 15.0 14.9 15.0 15.0 15.0 15.0 15.0 13.2 15.0 15.0 15.0 14.2 0.3 0.1 0.2 5.7 7.5 3.6 1.9 9.2 5.9 8.9 2.4 3.2 5.1 14.4 15.0 13.3 15.0 15.0 15.0 15.0 15.0 15.0 8.5 14.6 1.5 0.2 0.2 0.6 0.8 0.9 0.9
4.0 4.3 6.5 15.0 15.0 15.0 12.0 15.0 15.0 8.0 4.9 10.1 15.0 15.0 15.0 14.9 0.8 15.0 10.1 15.0 15.0 10.0 15.0 15.0 8.5 0.2 1.3 15.0 5.7 2.0 5.9 14.0 5.2 15.0 15.0 15.0 15.0 3.5 0.9 1.0 1.9 3.5 3.1 0.2 0.1 0.1 0.8 1.5 1.0 0.7 0.4 0.1 0.1 0.1